Tiempo cada hora Almada

Hoy, 28 Julio, Miércoles

Tiempo Temperatura Precipitaciones Viento Presión Humedad
00:00 +19°C° 0 mm 6 mps 758 mmHg 81%
01:00 +17°C° 0 mm 6 mps 758 mmHg 82%
02:00 +17°C° 0 mm 6 mps 758 mmHg 84%
03:00 +17°C° 0 mm 5 mps 758 mmHg 86%
04:00 +17°C° 0 mm 5 mps 758 mmHg 88%
05:00 +17°C° 0 mm 5 mps 757 mmHg 90%
06:00 +20°C° 0 mm 5 mps 758 mmHg 79%
07:00 +22°C° 0 mm 6 mps 758 mmHg 67%
08:00 +24°C° 0 mm 6 mps 758 mmHg 56%
09:00 +27°C° 0 mm 6 mps 758 mmHg 50%
10:00 +29°C° 0 mm 7 mps 758 mmHg 43%
11:00 +30°C° 0 mm 7 mps 758 mmHg 37%
12:00 +30°C° 0 mm 7 mps 757 mmHg 36%
13:00 +32°C° 0 mm 8 mps 757 mmHg 36%
14:00 +32°C° 0 mm 8 mps 757 mmHg 35%
15:00 +29°C° 0 mm 8 mps 757 mmHg 39%
16:00 +28°C° 0 mm 8 mps 757 mmHg 44%
17:00 +26°C° 0 mm 9 mps 757 mmHg 48%
18:00 +23°C° 0 mm 8 mps 757 mmHg 58%
19:00 +21°C° 0 mm 7 mps 758 mmHg 69%
20:00 +18°C° 0 mm 7 mps 758 mmHg 79%
21:00 +19°C° 0 mm 6 mps 758 mmHg 82%
22:00 +17°C° 0 mm 6 mps 758 mmHg 84%
23:00 +17°C° 0 mm 5 mps 758 mmHg 86%

Mañana, 29 Julio, Jueves

Tiempo Temperatura Precipitaciones Viento Presión Humedad
00:00 +17°C° 0 mm 5 mps 758 mmHg 87%
01:00 +16°C° 0 mm 6 mps 758 mmHg 88%
02:00 +16°C° 0 mm 6 mps 757 mmHg 89%
03:00 +16°C° 0 mm 5 mps 758 mmHg 90%
04:00 +16°C° 0 mm 5 mps 758 mmHg 90%
05:00 +16°C° 0 mm 5 mps 758 mmHg 90%
06:00 +19°C° 0 mm 5 mps 758 mmHg 79%
07:00 +21°C° 0 mm 5 mps 759 mmHg 68%
08:00 +23°C° 0 mm 5 mps 759 mmHg 57%
09:00 +26°C° 0 mm 6 mps 759 mmHg 50%
10:00 +28°C° 0 mm 6 mps 759 mmHg 44%
11:00 +29°C° 0 mm 7 mps 759 mmHg 37%
12:00 +29°C° 0 mm 7 mps 759 mmHg 36%
13:00 +29°C° 0 mm 7 mps 759 mmHg 35%
14:00 +29°C° 0 mm 8 mps 758 mmHg 34%
15:00 +28°C° 0 mm 8 mps 758 mmHg 39%
16:00 +27°C° 0 mm 8 mps 758 mmHg 43%
17:00 +24°C° 0 mm 8 mps 758 mmHg 47%
18:00 +22°C° 0 mm 8 mps 759 mmHg 58%
19:00 +20°C° 0 mm 7 mps 759 mmHg 69%
20:00 +18°C° 0 mm 7 mps 759 mmHg 80%
21:00 +17°C° 0 mm 6 mps 760 mmHg 83%
22:00 +17°C° 0 mm 5 mps 760 mmHg 86%
23:00 +16°C° 0 mm 5 mps 760 mmHg 90%

Pasado mañana, 30 Julio, Viernes

Tiempo Temperatura Precipitaciones Viento Presión Humedad
00:00 +17°C° 0 mm 5 mps 759 mmHg 90%
01:00 +17°C° 0 mm 5 mps 759 mmHg 90%
02:00 +17°C° 0 mm 5 mps 759 mmHg 90%
03:00 +19°C° 0 mm 6 mps 759 mmHg 89%
04:00 +19°C° 0 mm 6 mps 759 mmHg 88%
05:00 +19°C° 0 mm 6 mps 759 mmHg 88%
06:00 +21°C° 0 mm 6 mps 760 mmHg 79%
07:00 +23°C° 0 mm 6 mps 760 mmHg 70%
08:00 +26°C° 0 mm 6 mps 760 mmHg 60%
09:00 +27°C° 0 mm 7 mps 760 mmHg 54%
10:00 +29°C° 0 mm 7 mps 760 mmHg 47%
11:00 +30°C° 0 mm 7 mps 760 mmHg 40%
12:00 +30°C° 0 mm 7 mps 760 mmHg 39%
13:00 +31°C° 0 mm 8 mps 760 mmHg 38%
14:00 +31°C° 0 mm 8 mps 759 mmHg 37%
15:00 +28°C° 0 mm 8 mps 759 mmHg 41%
16:00 +27°C° 0 mm 8 mps 759 mmHg 46%
17:00 +26°C° 0 mm 8 mps 759 mmHg 50%
18:00 +23°C° 0 mm 7 mps 760 mmHg 60%
19:00 +21°C° 0 mm 7 mps 760 mmHg 70%
20:00 +19°C° 0 mm 6 mps 760 mmHg 81%
21:00 +19°C° 0 mm 6 mps 760 mmHg 84%
22:00 +19°C° 0 mm 6 mps 760 mmHg 87%
23:00 +17°C° 0 mm 6 mps 760 mmHg 90%

31 Julio, Sábado

Tiempo Temperatura Precipitaciones Viento Presión Humedad
00:00 +17°C° 0 mm 6 mps 760 mmHg 89%
01:00 +17°C° 0 mm 6 mps 760 mmHg 87%
02:00 +17°C° 0 mm 7 mps 760 mmHg 85%
03:00 +17°C° 0 mm 7 mps 760 mmHg 83%
04:00 +17°C° 0 mm 7 mps 760 mmHg 80%
05:00 +17°C° 0 mm 7 mps 760 mmHg 78%
06:00 +18°C° 0 mm 7 mps 760 mmHg 68%
07:00 +21°C° 0 mm 8 mps 760 mmHg 59%
08:00 +22°C° 0 mm 8 mps 760 mmHg 50%
09:00 +23°C° 0 mm 9 mps 760 mmHg 45%
10:00 +24°C° 0 mm 9 mps 760 mmHg 40%
11:00 +26°C° 0 mm 9 mps 760 mmHg 36%
12:00 +26°C° 0 mm 9 mps 760 mmHg 37%
13:00 +26°C° 0 mm 10 mps 760 mmHg 39%
14:00 +26°C° 0 mm 10 mps 760 mmHg 41%
15:00 +24°C° 0 mm 10 mps 760 mmHg 46%
16:00 +23°C° 0 mm 10 mps 760 mmHg 52%
17:00 +22°C° 0 mm 10 mps 760 mmHg 58%
18:00 +21°C° 0 mm 9 mps 760 mmHg 63%
19:00 +19°C° 0 mm 9 mps 761 mmHg 69%
20:00 +18°C° 0 mm 9 mps 761 mmHg 74%
21:00 +17°C° 0 mm 9 mps 761 mmHg 75%
22:00 +17°C° 0 mm 9 mps 761 mmHg 77%
23:00 +17°C° 0 mm 8 mps 761 mmHg 78%

1 Agosto, Domingo

Tiempo Temperatura Precipitaciones Viento Presión Humedad
00:00 +17°C° 0 mm 8 mps 760 mmHg 78%
01:00 +16°C° 0 mm 8 mps 760 mmHg 77%
02:00 +16°C° 0 mm 8 mps 760 mmHg 77%
03:00 +16°C° 0 mm 8 mps 760 mmHg 77%
04:00 +16°C° 0 mm 7 mps 760 mmHg 78%
05:00 +16°C° 0 mm 7 mps 760 mmHg 79%
06:00 +18°C° 0 mm 8 mps 760 mmHg 70%
07:00 +20°C° 0 mm 8 mps 760 mmHg 61%
08:00 +22°C° 0 mm 8 mps 760 mmHg 52%
09:00 +23°C° 0 mm 8 mps 760 mmHg 48%
10:00 +24°C° 0 mm 8 mps 760 mmHg 44%
11:00 +26°C° 0 mm 8 mps 760 mmHg 40%
12:00 +26°C° 0 mm 8 mps 760 mmHg 40%
13:00 +27°C° 0 mm 9 mps 760 mmHg 40%
14:00 +27°C° 0 mm 9 mps 760 mmHg 40%
15:00 +26°C° 0 mm 9 mps 760 mmHg 44%
16:00 +24°C° 0 mm 9 mps 760 mmHg 48%
17:00 +23°C° 0 mm 9 mps 759 mmHg 51%
18:00 +21°C° 0 mm 8 mps 760 mmHg 59%
19:00 +20°C° 0 mm 7 mps 760 mmHg 67%
20:00 +17°C° 0 mm 6 mps 760 mmHg 75%
21:00 +17°C° 0 mm 6 mps 760 mmHg 76%
22:00 +17°C° 0 mm 5 mps 760 mmHg 78%
23:00 +17°C° 0 mm 5 mps 760 mmHg 79%

2 Agosto, Lunes

Tiempo Temperatura Precipitaciones Viento Presión Humedad
00:00 +16°C° 0 mm 5 mps 759 mmHg 82%
01:00 +17°C° 0 mm 4 mps 759 mmHg 84%
02:00 +17°C° 0 mm 4 mps 759 mmHg 86%
03:00 +17°C° 0 mm 4 mps 759 mmHg 86%
04:00 +17°C° 0 mm 3 mps 759 mmHg 86%
05:00 +17°C° 0 mm 3 mps 759 mmHg 86%
06:00 +19°C° 0 mm 3 mps 759 mmHg 75%
07:00 +21°C° 0 mm 3 mps 759 mmHg 64%
08:00 +25°C° 0 mm 4 mps 759 mmHg 53%
09:00 +26°C° 0 mm 4 mps 759 mmHg 50%
10:00 +27°C° 0 mm 5 mps 758 mmHg 47%
11:00 +29°C° 0 mm 5 mps 758 mmHg 44%
12:00 +29°C° 0 mm 5 mps 758 mmHg 45%
13:00 +29°C° 0 mm 6 mps 758 mmHg 45%
14:00 +29°C° 0 mm 7 mps 758 mmHg 46%
15:00 +28°C° 0 mm 7 mps 758 mmHg 50%
16:00 +27°C° 0 mm 7 mps 758 mmHg 55%
17:00 +26°C° 0 mm 6 mps 757 mmHg 60%
18:00 +23°C° 0 mm 6 mps 758 mmHg 69%
19:00 +22°C° 0 mm 5 mps 758 mmHg 78%
20:00 +20°C° 0 mm 5 mps 758 mmHg 88%
21:00 +20°C° 0 mm 5 mps 758 mmHg 88%
22:00 +19°C° 0 mm 5 mps 758 mmHg 89%
23:00 +19°C° 0 mm 5 mps 758 mmHg 90%
Mostrar más

Necesitamos Su Consentimiento

Meteoprog y nuestros Proveedores de Servicios pueden almacenar y acceder a sus datos personales como cookies, identificadores de dispositivo u otras tecnologías similares de su dispositivo y procesar dichos datos para personalizar contenido y anuncios, además de ofrecer funciones de redes sociales y analizar el tráfico.

  • Almacenar y/o acceder a información en su dispositivo

    Se puede almacenar o acceder a cookies, identificadores de dispositivo u otra información de su dispositivo para los fines anteriormente indicados.

  • Anuncios y contenido personalizados, medición de anuncios y contenido, percepciones del público, y desarrollo de productos

    Los anuncios y el contenido pueden personalizarse en base a su perfil. Se pueden añadir más datos para personalizar mejor los anuncios y contenidos. Se puede medir el rendimiento de los anuncios y contenidos. Se puede obtener la percepción sobre el público que ha visto los anuncios y contenidos. Dichos datos pueden usarse para desarrollar o mejorar la experiencia del usuario, sistemas y software.

Al hacer clic en ‘Estoy De Acuerdo’ usted permitirá el uso de las cookies, identificadores de dispositivo, balizas web u otras tecnologías similares indicadas. Su configuración puede cambiarse desde el navegador de su dispositivo.

Para ciertos fines, los intereses legítimos pueden ser considerados por encima del consentimiento. Puede leer más sobre ello en nuestra Política de Privacidad y Cookies.